Flight Track Log - Related Links

Times and Time Zones

All times are in EDT time to prevent confusion due to time zone crossing. See the USC105 flight status page for this flight to view local times or setup timezone preferences in your user account.

Time Position Orientation Groundspeed Altitude Reporting Facility
EDT Latitude Longitude Course Direction KTS MPH feet Rate Location/Type
07:20 42.2458 -83.6025 160° South 144 166 2,300  Level FAA TRACON SMA TRACON (SMA)
07:20 42.2456 -83.6194 269° West 146 168 2,700 1,077 Climbing FAA TRACON SMA TRACON (SMA)
07:20 42.2431 -83.6364 259° West 170 196 3,000 1,171 Climbing FAA TRACON SMA TRACON (SMA)
07:21 42.2311 -83.6528 225° Southwest 160 184 3,500 1,317 Climbing FAA TRACON SMA TRACON (SMA)
07:21 42.2211 -83.6639 219° Southwest 148 170 3,900 1,077 Climbing FAA TRACON SMA TRACON (SMA)
07:21 42.2106 -83.6744 217° Southwest 152 175 4,200 1,077 Climbing FAA TRACON SMA TRACON (SMA)
07:22 42.1972 -83.6869 215° Southwest 151 174 4,600 1,050 Climbing FAA TRACON SMA TRACON (SMA)
07:22 42.1864 -83.6969 214° Southwest 153 176 4,900 450 Climbing FAA TRACON SMA TRACON (SMA)
07:22 42.1747 -83.7075 214° Southwest 160 184 4,900 150 Level FAA TRACON SMA TRACON (SMA)
07:23 42.1592 -83.7231 217° Southwest 183 211 5,000  Climbing FAA TRACON SMA TRACON (SMA)
07:23 42.1458 -83.7353 214° Southwest 190 219 4,900 -154 Descending FAA TRACON SMA TRACON (SMA)
07:23 42.1322 -83.7489 217° Southwest 195 224 4,900  Level FAA TRACON SMA TRACON (SMA)
07:24 42.1144 -83.7650 214° Southwest 198 228 4,900  Level FAA TRACON SMA TRACON (SMA)
07:24 42.1003 -83.7781 214° Southwest 199 229 4,900  Level FAA TRACON SMA TRACON (SMA)
07:24 42.0850 -83.7928 216° Southwest 199 229 4,900  Level FAA TRACON SMA TRACON (SMA)
07:25 41.9829 -83.4415 160° South  Level FlightAware Approximate
07:25 42.0692 -83.8075 215° Southwest 197 227 4,900  Level FAA TRACON SMA TRACON (SMA)
07:25 42.0553 -83.8206 215° Southwest 197 227 4,900  Level FAA TRACON SMA TRACON (SMA)
07:25 42.0381 -83.8369 215° Southwest 197 227 4,900  Level FAA TRACON SMA TRACON (SMA)
07:26 42.0242 -83.8503 215° Southwest 198 228 4,900  Level FAA TRACON SMA TRACON (SMA)
07:26 42.0108 -83.8642 218° Southwest 197 227 4,900  Level FAA TRACON SMA TRACON (SMA)
07:26 41.9942 -83.8811 217° Southwest 196 226 4,900  Level FAA TRACON SMA TRACON (SMA)
07:27 41.9808 -83.8944 217° Southwest 196 226 4,900  Level FAA TRACON SMA TRACON (SMA)
07:27 41.9672 -83.9078 216° Southwest 196 226 4,900 154 Level FAA TRACON SMA TRACON (SMA)
07:27 41.9525 -83.9192 210° Southwest 193 222 5,000  Climbing FAA TRACON SMA TRACON (SMA)
07:28 41.9308 -83.9128 168° South 206 237 4,900 -150 Descending FAA TRACON SMA TRACON (SMA)
07:28 41.9139 -83.9044 160° South 209 241 4,900 769 Level FAA TRACON SMA TRACON (SMA)
07:28 41.8936 -83.8936 158° South 203 234 5,400 1,200 Climbing FAA TRACON SMA TRACON (SMA)
07:29 41.8783 -83.8856 159° South 195 224 5,700 750 Climbing FAA TRACON SMA TRACON (SMA)
07:29 41.8639 -83.8789 161° South 185 213 5,900 450 Climbing FAA TRACON SMA TRACON (SMA)
07:29 41.8492 -83.8717 160° South 183 211 6,000 585 Climbing FAA TRACON SMA TRACON (SMA)
07:30 41.8306 -83.8622 159° South 186 214 6,300 585 Climbing FAA TRACON SMA TRACON (SMA)
07:30 41.8153 -83.8544 159° South 188 216 6,400 450 Climbing FAA TRACON SMA TRACON (SMA)
07:30 41.7961 -83.8456 161° South 188 216 6,600 750 Climbing FAA TRACON SMA TRACON (SMA)
07:31 41.7811 -83.8381 160° South 188 216 6,900 600 Climbing FAA TRACON SMA TRACON (SMA)
07:31 41.7658 -83.8308 161° South 189 217 7,000  Climbing FAA TRACON SMA TRACON (SMA)
07:31 41.7461 -83.8206 159° South 196 226 6,900 -150 Descending FAA TRACON SMA TRACON (SMA)
07:32 41.7292 -83.8117 159° South 208 239 6,900  Level FAA TRACON SMA TRACON (SMA)
07:32 41.7128 -83.8028 158° South 207 238 6,900  Level FAA TRACON SMA TRACON (SMA)
07:32 41.6922 -83.7917 158° South 212 244 6,900  Level FAA TRACON SMA TRACON (SMA)
07:33 41.6756 -83.7819 156° South 226 260 6,900  Level FAA TRACON SMA TRACON (SMA)
07:33 41.6597 -83.7753 163° South 204 235 6,900  Level FAA TRACON SMA TRACON (SMA)
07:33 41.6386 -83.7636 158° South 209 241 6,900  Level FAA TRACON SMA TRACON (SMA)
07:34 41.6222 -83.7550 159° South 208 239 6,900  Level FAA TRACON SMA TRACON (SMA)
07:34 41.6056 -83.7461 158° South 206 237 6,900  Level FAA TRACON SMA TRACON (SMA)
07:34 41.5853 -83.7347 157° South 208 239 6,900  Level FAA TRACON SMA TRACON (SMA)
07:35 41.5694 -83.7269 160° South 202 232 6,900  Level FAA TRACON SMA TRACON (SMA)
07:35 41.5533 -83.7192 160° South 201 231 6,900  Level FAA TRACON SMA TRACON (SMA)
07:35 41.5333 -83.7089 159° South 201 231 6,900  Level FAA TRACON SMA TRACON (SMA)
07:36 41.5172 -83.7006 159° South 201 231 6,900  Level FAA TRACON SMA TRACON (SMA)
07:36 41.5014 -83.6928 160° South 199 229 6,900  Level FAA TRACON SMA TRACON (SMA)
07:36 41.4814 -83.6825 159° South 200 230 6,900  Level FAA TRACON SMA TRACON (SMA)
07:37 41.4656 -83.6753 161° South 198 228 6,900  Level FAA TRACON SMA TRACON (SMA)
07:37 41.4494 -83.6667 158° South 200 230 6,900  Level FAA TRACON SMA TRACON (SMA)
07:37 41.4292 -83.6572 161° South 199 229 6,900  Level FAA TRACON SMA TRACON (SMA)
07:38 41.4131 -83.6500 161° South 199 229 6,900  Level FAA TRACON SMA TRACON (SMA)
07:38 41.3969 -83.6414 158° South 201 231 6,900  Level FAA TRACON SMA TRACON (SMA)
07:38 41.3764 -83.6311 159° South 201 231 6,900  Level FAA TRACON SMA TRACON (SMA)
07:39 41.3603 -83.6233 160° South 202 232 6,900  Level FAA TRACON SMA TRACON (SMA)
07:41 41.2408 -83.5650 160° South 202 232 6,900  Level Indianapolis Center
07:42 41.1872 -83.5383 159° South 204 235 6,900  Level Indianapolis Center
07:43 41.1322 -83.5133 161° South 205 236 6,900  Level Indianapolis Center
07:44 41.0778 -83.4881 161° South 206 237 6,900  Level Indianapolis Center
07:45 41.0136 -83.4583 161° South 206 237 6,900  Level Indianapolis Center
07:46 40.9594 -83.4333 161° South 206 237 6,900  Level Indianapolis Center
07:47 40.9056 -83.4072 160° South 205 236 6,900  Level Indianapolis Center
07:48 40.8500 -83.3800 160° South 208 239 6,900  Level Indianapolis Center
07:49 40.7961 -83.3575 162° South 205 236 6,900  Level Indianapolis Center
07:50 40.7392 -83.3328 162° South 205 236 6,900  Level Indianapolis Center
07:51 40.6842 -83.3094 162° South 205 236 6,900  Level Indianapolis Center
07:52 40.6292 -83.2856 162° South 206 237 6,900  Level Indianapolis Center
07:53 40.5747 -83.2633 163° South 204 235 6,900  Level Indianapolis Center
07:54 40.5189 -83.2400 162° South 207 238 6,900  Level Indianapolis Center
07:55 40.4636 -83.2178 163° South 205 236 6,900  Level Indianapolis Center
07:56 40.4100 -83.1931 161° South 204 235 6,900  Level Indianapolis Center
07:58 40.3575 -83.1686 160° South 199 229 6,900  Level Indianapolis Center
07:59 40.2975 -83.1386 159° South 195 224 6,900  Level Indianapolis Center
08:00 40.2467 -83.1125 159° South 194 223 6,900 -73 Level Indianapolis Center
08:00 40.2278 -83.1053 164° South 191 220 6,800 -387 Descending Indianapolis Center
08:01 40.1972 -83.0864 155° Southeast 190 219 6,500 -700 Descending Indianapolis Center
08:01 40.1775 -83.0775 161° South 196 226 6,100 -787 Descending Indianapolis Center
08:02 40.1419 -83.0622 162° South 204 235 5,700 -699 Descending Indianapolis Center
08:03 40.0817 -83.0392 164° South 210 242 4,900 -414 Descending Indianapolis Center
08:04 40.0389 -83.0233 164° South 179 206 4,900 -145 Level Indianapolis Center
08:05 39.9872 -82.9992 160° South 183 211 4,600 -504 Descending Indianapolis Center
08:06 39.9386 -82.9681 154° Southeast 188 216 3,800 -1,115 Descending Indianapolis Center
08:07 39.8919 -82.9356 152° Southeast 200 230 2,500 -964 Descending Indianapolis Center
08:08 39.8483 -82.9008 149° Southeast 177 204 2,000 -767 Descending Indianapolis Center
08:09 39.8178 -82.9272 214° Southwest 159 183 800 -1,000 Descending Indianapolis Center
08:11 39.8138 -82.9278 159° South  Level Estimated

Login

Don't have an account? Register now (free) for customized features, flight alerts, and more!